{"data":{"norad_id":65035,"intl_designator":"2025-161W","name":"STARLINK-34286","alt_names":[],"object_type":"PAYLOAD","status":"ACTIVE","operator":null,"country":"US","launch_date":"2025-07-30","launch_site_code":"AFWTR","launch_vehicle":null,"mission":null,"orbit_class":"UNKNOWN","rcs_meters":null,"size_class":null,"mass_kg":null,"dimensions":null,"purposes":["comms"],"wikipedia_slug":null,"has_3d_model":false,"image_url":null,"decayed_at":null,"tle_current":{"epoch":"2026-09-20T21:53:06.205632Z","epoch_age_seconds":84637,"freshness":"FRESH","line1":"1 65035U 25161W   26263.91187738  .00017827  00000+0  53750-3 0  9994","line2":"2 65035  53.1565 103.5552 0001386 117.3847 242.7297 15.34399741 64173","mean_motion":15.34399741,"eccentricity":0.0001386,"inclination_deg":53.1565,"raan_deg":103.5552,"arg_perigee_deg":117.3847,"mean_anomaly_deg":242.7297,"bstar":0.0005375,"rev_number":6417,"period_min":93.847773922428,"perigee_km":461.75586944581,"apogee_km":463.65215057378,"semimajor_km":6840.8410100098,"source":"CELESTRAK","updated_at":"2026-09-21T09:00:35.495600Z"}}}